[[{"header":{"parameterUnit":"m.s-1","parameterCategory":1,"la1":30.2991,"la2":30.254,"lo1":-89.0895,"lo2":-89.0444,"dy":0.0017,"dx":0.0017,"nx":28,"ny":28,"refTime":"2024-07-12T09:00:00:Z","depth":0,"parameterNumber":2,"parameterNumberName":"U-component_of_WINDS"},"data":[0,0,0,0,0,0,0,0,0,0,0,0,0,0,0,0,0,0,0,0,0,0,0,0,0,0,0,0,0,0,0,0,0,0,0,0,0,0,0,0,0,0,0,0,0,0,0,0,0,0,0,0,0,0,0,0,0,0,3.7045,3.7046,0,3.7142,3.7144,3.7145,3.7069,3.7066,3.7063,3.7059,3.7162,3.7168,3.7174,0,0,0,0,0,0,0,0,0,0,0,0,0,3.6793,3.6798,3.7045,3.7046,3.7047,3.7142,3.7144,3.7145,3.707,3.7066,3.7062,3.7058,3.716,3.7167,3.7174,0,0,0,0,0,0,0,0,0,0,0,0,0,3.6898,3.68,3.7044,3.7021,3.702,3.7142,3.7144,3.7145,3.707,3.7066,3.7061,3.7056,3.7158,3.7167,3.7175,3.7327,0,0,3.7202,3.7205,0,0,0,0,0,0,0,0,3.6892,3.6907,3.7023,3.7023,3.7022,3.7088,3.7093,3.7206,3.7072,3.7051,3.7059,3.7054,3.7142,3.7152,3.7181,3.7331,3.7336,3.7202,3.7208,3.7211,3.7214,0,0,0,0,0,0,0,3.6885,3.6903,3.7083,3.7025,3.7024,3.7006,3.7015,3.7114,3.7123,3.7053,3.7047,3.706,3.7141,3.7173,3.7183,3.7337,3.7202,3.721,3.7215,3.7219,3.7613,3.7618,0,0,0,0,0,0,3.688,3.6897,3.708,3.7086,3.6943,3.7014,3.7025,3.7072,3.7122,3.7124,3.7064,3.7056,3.716,3.7173,3.7186,3.7363,3.7211,3.7219,3.7224,3.7608,3.7614,3.762,0,0,0,0,0,0,3.6875,3.6897,3.7076,3.699,3.7012,3.7024,3.7077,3.7077,3.7108,3.713,3.7132,3.7095,3.7157,3.7174,3.7291,3.7366,3.7223,3.7231,3.7602,3.761,3.7617,3.7721,0,0,0,0,0,0,3.6868,3.6896,3.6953,3.6992,3.7017,3.718,3.7082,3.7082,3.7123,3.7114,3.716,3.7162,3.7154,3.7278,3.73,3.7375,3.7238,3.7595,3.7605,3.7614,3.7711,3.7732,3.7749,0,0,0,0,0,3.6859,3.698,3.6957,3.6979,3.7089,3.7185,3.7198,3.7186,3.713,3.7187,3.7201,3.7161,3.7355,3.7291,3.7314,3.7394,3.759,3.7602,3.7614,3.7702,3.7728,3.7749,0,0,0,0,0,0,3.6951,3.6985,3.6959,3.7096,3.7138,3.7172,3.7244,3.7214,3.7273,3.7261,3.7244,3.7255,3.7377,3.7398,3.7326,3.7541,3.7463,3.748,3.7523,3.7547,3.7566,3.7557,3.7245,0,0,0,0,0,3.6987,3.7062,3.7087,3.7206,3.7228,3.7233,3.7274,3.726,3.7303,3.7321,3.7343,3.7386,3.7456,3.7503,3.7569,3.7714,3.7721,3.778,3.7799,3.7815,3.7829,3.7903,3.7929,3.7659,3.7659,3.7659,0,0,3.7063,3.7091,3.7139,3.7225,3.7256,3.7332,3.7248,3.7334,3.739,3.7334,3.7444,3.7463,3.751,3.7641,3.7699,3.7661,3.7905,3.783,3.7842,3.7848,3.7918,3.7944,3.7966,3.7667,3.7665,3.7664,0,0,3.7239,3.7269,3.7369,3.7401,3.7447,3.7449,3.7473,3.7511,3.752,3.7631,3.7589,3.7657,3.7779,3.7813,3.7847,3.8034,3.7998,3.8056,3.8155,3.8228,3.8249,3.8268,3.8331,3.8355,3.8071,3.8071,3.8071,0,3.7328,3.7441,3.7425,3.7512,3.755,3.7501,3.7602,3.7634,3.7701,3.7728,3.7684,3.7834,3.7863,3.7999,3.8044,3.8074,3.8099,3.805,3.8247,3.8266,3.8283,3.8343,3.8368,3.8077,3.8077,3.8076,3.8075,0,3.7546,3.7625,3.77,3.7763,3.781,3.7904,3.7901,3.7951,3.7933,3.7939,3.8051,3.8084,3.8154,3.8186,3.8171,3.8319,3.8293,3.8249,3.817,3.8315,3.8371,3.8395,3.8087,3.8084,3.8082,3.8081,0,0,3.7783,3.7834,3.7861,3.7888,3.7935,3.7996,3.8087,3.8154,3.8195,3.8243,3.8317,3.842,3.8378,3.8416,3.8404,3.8469,3.861,3.8416,3.8417,3.8448,3.8773,3.8803,3.8831,3.8588,3.8592,3.8596,3.8767,0,3.7959,3.8115,3.8102,3.825,3.8322,3.8275,3.8354,3.8391,3.84,3.8461,3.8471,3.8543,3.8484,3.8506,3.8568,3.858,3.8675,3.8568,3.8655,3.8659,3.8642,3.8861,3.8894,3.9055,3.879,3.8793,3.8796,0,3.8185,3.8237,3.8392,3.8425,3.8454,3.8525,3.8584,3.8644,3.8685,3.8686,3.8727,3.8703,3.8794,3.8715,3.8838,3.8766,3.8801,3.8812,3.8818,3.8824,3.8734,3.8869,3.9106,3.9129,3.8831,3.8828,3.8826,0,3.8338,3.8448,3.8553,3.8578,3.862,3.867,3.8691,3.8726,3.8766,3.8818,3.8843,3.8906,3.894,3.8989,3.8982,3.8925,3.9107,3.9028,3.9108,3.9109,3.9147,3.9144,3.939,3.9175,3.9175,3.9174,3.9174,0,3.8534,3.863,3.8622,3.8687,3.8792,3.8776,3.8881,3.8895,3.8927,3.8993,3.8958,3.9021,3.9009,3.9072,3.9068,3.9169,3.9186,3.9188,3.9185,3.9189,3.9189,3.921,3.9198,3.9181,3.9179,3.9178,3.9177,0,3.8722,3.8721,3.8832,3.8862,3.8872,3.8948,3.8973,3.9034,3.9039,3.9123,3.9142,3.9149,3.9221,3.9219,3.9302,3.9299,3.9422,3.9408,3.9407,3.9403,3.9483,3.9475,3.9749,3.9783,3.9549,3.9551,3.9553,0,3.8846,3.8917,3.8954,3.8995,3.9018,3.9085,3.9125,3.9112,3.9155,3.9205,3.9259,3.9327,3.9381,3.9498,3.951,3.9573,3.9558,3.965,3.9567,3.9568,3.9555,3.955,3.9555,3.9665,3.9668,3.967,3.9672,0,3.9064,3.9059,3.9118,3.9175,3.9223,3.9269,3.931,3.9346,3.9337,3.9387,3.9459,3.9501,3.9583,3.965,3.971,3.973,3.9699,3.9698,3.9719,3.9723,3.9718,3.9718,3.9448,3.9691,3.9689,3.9688,3.9687,3.9686,3.9221,3.9282,3.9316,3.9381,3.9411,3.945,3.9507,3.9518,3.9577,3.9642,3.9631,3.9711,3.9747,3.9823,3.9849,3.9911,3.9878,3.991,3.9918,3.9925,3.9932,3.9711,3.9922,3.9921,3.9921,3.992,3.992,0,3.9435,3.9454,3.9514,3.9572,3.9623,3.9589,3.9632,3.9677,3.9747,3.9784,3.9836,3.9917,3.9982,3.9999,4.0061,4.0107,4.0094,4.0123,4.0118,4.0123,3.9959,3.9933,4.0132,4.0132,4.0132,4.0132,4.0132,4.0132,3.9552,3.9651,3.965,3.9763,3.9781,3.9858,3.9885,3.992,3.9948,4.004,4.0093,4.0103,4.0131,4.0194,4.0252,4.0255,4.0278,4.0313,4.031,4.0156,4.0135,4.0115,4.0089,4.0319,4.0319,4.0468,4.0469,4.047]},{"header":{"parameterUnit":"m.s-1","parameterCategory":1,"la1":30.2991,"la2":30.254,"lo1":-89.0895,"lo2":-89.0444,"dy":0.0017,"dx":0.0017,"nx":28,"ny":28,"refTime":"2024-07-12T09:00:00:Z","depth":0,"parameterNumber":3,"parameterNumberName":"V-component_of_WINDS"},"data":[0,0,0,0,0,0,0,0,0,0,0,0,0,0,0,0,0,0,0,0,0,0,0,0,0,0,0,0,0,0,0,0,0,0,0,0,0,0,0,0,0,0,0,0,0,0,0,0,0,0,0,0,0,0,0,0,0,0,2.1136,2.1137,0,2.1239,2.124,2.1241,2.1241,2.124,2.1238,2.1237,2.1342,2.1346,2.135,0,0,0,0,0,0,0,0,0,0,0,0,0,2.0938,2.0942,2.1136,2.1138,2.1139,2.1239,2.124,2.1242,2.1241,2.124,2.1238,2.1237,2.1341,2.1345,2.135,0,0,0,0,0,0,0,0,0,0,0,0,0,2.1031,2.0943,2.1136,2.1151,2.1153,2.1239,2.124,2.1242,2.1242,2.124,2.1238,2.1236,2.1339,2.1345,2.1351,2.1429,0,0,2.1369,2.1372,0,0,0,0,0,0,0,0,2.1026,2.1038,2.1147,2.115,2.1153,2.1225,2.1209,2.1305,2.1242,2.1208,2.1237,2.1235,2.1305,2.1313,2.1337,2.1433,2.1438,2.137,2.1374,2.1376,2.1378,0,0,0,0,0,0,0,2.1019,2.1034,2.1177,2.1149,2.1152,2.1152,2.1163,2.1227,2.1266,2.1211,2.1211,2.1223,2.1306,2.1331,2.134,2.1439,2.137,2.1375,2.1379,2.1381,2.1603,2.1605,0,0,0,0,0,0,2.101,2.1028,2.1174,2.118,2.1083,2.1157,2.1169,2.1204,2.1266,2.1273,2.1225,2.1223,2.1322,2.1332,2.1343,2.1437,2.1376,2.1382,2.1385,2.1601,2.1604,2.1606,0,0,0,0,0,0,2.1006,2.1023,2.117,2.1104,2.1123,2.1162,2.1202,2.1207,2.1233,2.1276,2.1283,2.1244,2.1321,2.1335,2.1407,2.1441,2.1385,2.139,2.1598,2.1602,2.1605,2.1627,0,0,0,0,0,0,2.1,2.1021,2.1052,2.1105,2.1126,2.1232,2.1204,2.1211,2.1243,2.1241,2.1296,2.1303,2.132,2.1398,2.1413,2.1448,2.1395,2.1595,2.16,2.1604,2.1623,2.163,2.1636,0,0,0,0,0,2.0993,2.1054,2.1053,2.1071,2.1165,2.1234,2.1246,2.1265,2.1246,2.1276,2.1304,2.1301,2.1435,2.1405,2.1422,2.146,2.1593,2.1598,2.1603,2.162,2.1629,2.1636,0,0,0,0,0,0,2.1004,2.1061,2.1061,2.1141,2.1183,2.1234,2.1273,2.1274,2.1322,2.1318,2.1339,2.1352,2.1423,2.1449,2.1415,2.1538,2.1512,2.152,2.1518,2.1527,2.1534,2.1526,2.14,0,0,0,0,0,2.1016,2.1067,2.1114,2.118,2.1201,2.1233,2.1264,2.1275,2.1319,2.1336,2.1369,2.1412,2.1463,2.1497,2.1546,2.1627,2.1638,2.1661,2.1667,2.1673,2.168,2.1723,2.1733,2.1623,2.1623,2.1623,0,0,2.104,2.1078,2.1109,2.1184,2.1217,2.1269,2.1248,2.1305,2.1343,2.1345,2.1415,2.1441,2.1489,2.1565,2.1601,2.1589,2.1713,2.1679,2.1683,2.1687,2.1729,2.174,2.1749,2.1626,2.1626,2.1625,0,0,2.1112,2.1146,2.1204,2.1238,2.1289,2.131,2.1323,2.1374,2.1391,2.1462,2.1464,2.151,2.1598,2.1633,2.1661,2.1745,2.1743,2.176,2.1795,2.1837,2.1846,2.1854,2.1882,2.1892,2.1767,2.1767,2.1767,0,2.1136,2.1215,2.1234,2.129,2.1322,2.1326,2.1385,2.1416,2.1481,2.1502,2.1488,2.1598,2.1632,2.1715,2.1735,2.1759,2.1775,2.1754,2.1843,2.1851,2.1859,2.1886,2.1897,2.1769,2.1769,2.1769,2.1768,0,2.1242,2.1297,2.1338,2.1399,2.1436,2.1493,2.152,2.1555,2.1562,2.1584,2.1655,2.1695,2.1752,2.1773,2.1781,2.1858,2.1849,2.1839,2.1813,2.187,2.1897,2.1907,2.1771,2.1771,2.177,2.177,0,0,2.1324,2.1395,2.1409,2.1437,2.1492,2.1535,2.1591,2.1647,2.1676,2.172,2.1768,2.1842,2.1833,2.1866,2.1877,2.1914,2.1976,2.1899,2.1901,2.1911,2.2061,2.2068,2.208,2.1975,2.1977,2.1979,2.2057,0,2.1401,2.1502,2.152,2.1608,2.1658,2.1662,2.1711,2.175,2.1772,2.1817,2.1841,2.1893,2.1878,2.1897,2.1934,2.1961,2.2006,2.1955,2.2019,2.2021,2.2006,2.2094,2.2102,2.2173,2.2067,2.2069,2.2071,0,2.1504,2.155,2.1643,2.1691,2.1713,2.1757,2.1809,2.1852,2.1896,2.191,2.1946,2.1953,2.2011,2.1983,2.2063,2.2028,2.2055,2.2072,2.2075,2.2081,2.2049,2.2102,2.2197,2.2207,2.2087,2.2086,2.2085,0,2.1553,2.1639,2.1705,2.1728,2.1786,2.1817,2.1842,2.1884,2.1916,2.1962,2.1983,2.2034,2.2062,2.2102,2.2122,2.21,2.22,2.2174,2.2212,2.2212,2.2233,2.2231,2.2333,2.2252,2.2251,2.2251,2.2251,0,2.1637,2.1693,2.1728,2.1768,2.1831,2.1851,2.1913,2.1938,2.1975,2.202,2.2026,2.2068,2.2093,2.2139,2.2155,2.2218,2.2231,2.2243,2.2246,2.2242,2.224,2.226,2.2255,2.2254,2.2254,2.2253,2.2252,0,2.1702,2.1727,2.18,2.1848,2.1862,2.1906,2.1947,2.1986,2.2008,2.2065,2.2079,2.2113,2.2167,2.2191,2.2258,2.2269,2.234,2.2341,2.2325,2.2326,2.2363,2.2359,2.248,2.2496,2.2405,2.2406,2.2406,0,2.1753,2.1797,2.1849,2.188,2.1906,2.1956,2.1988,2.2009,2.2043,2.2095,2.2128,2.2182,2.2226,2.2312,2.2342,2.2392,2.2394,2.2433,2.2401,2.2395,2.2393,2.239,2.2394,2.2438,2.2439,2.244,2.244,0,2.1841,2.1851,2.1898,2.1949,2.1987,2.2029,2.2069,2.2094,2.2121,2.2158,2.2213,2.2247,2.2315,2.2368,2.242,2.2446,2.2447,2.245,2.2461,2.2457,2.2446,2.2451,2.234,2.2447,2.2446,2.2446,2.2445,2.2445,2.19,2.1939,2.1981,2.2033,2.2065,2.2103,2.2142,2.2168,2.2214,2.2271,2.228,2.2338,2.238,2.2451,2.2478,2.2523,2.2514,2.2531,2.2535,2.2538,2.254,2.2439,2.2533,2.2533,2.2533,2.2533,2.2533,0,2.1987,2.2015,2.2062,2.2118,2.2158,2.2157,2.2201,2.2234,2.2286,2.2325,2.2368,2.243,2.2482,2.2516,2.2567,2.2597,2.2599,2.261,2.2608,2.2613,2.2546,2.2531,2.2607,2.2607,2.2607,2.2607,2.2607,2.2607,2.2038,2.2102,2.2117,2.2197,2.2224,2.2281,2.2306,2.2341,2.2372,2.2441,2.2484,2.2506,2.2542,2.2597,2.2643,2.2652,2.267,2.2681,2.2689,2.2626,2.2618,2.2611,2.2596,2.2685,2.2686,2.2753,2.2753,2.2754]}]]